CZ-6A DEB

Satellite information

Favourite Embed

Satellite Type and Status

DEBRISIN ORBIT

Key statistics

Satellite CZ-6A DEB at a glance.

Uptime

1129

Days in orbit

Revolutions

≈ 14.4

Per day

Orbit

SSO

Sun Synchronous Orbit

Inclination

98.5

Latest

Satellite identification and parameters

Extended collection of information and parameters for CZ-6A DEB.

Object identification

Identified? True

Debris? True

Object name: CZ-6A DEB

International designator: 2022-151JR

Object number (NORAD): 54513

Object ID (CCSDS): 54513

Country: PEOPLES REPUBLIC OF CHINA (PRC)

Current information (Y/N): Y

RCS size: SMALL

Orbital parameters

Period: 99.922 minutes

Inclination: 98.4868 deg

SMA: 7132.928 km

Apoapsis: 861.358 km

Periapsis: 648.227 km

RAAN: 355.9198 deg

Eccentricy: 0.01494

Argument of periapsis: 180.7714 deg

Mean anomaly: 179.3267 deg

Mean motion: 14.41122986 rev/day

Mean motion (dot): 0.00000756 rev/day2

B* drag term: 0.00021897 1/REarth

Two-line elements (TLE)

Creation date: Dec. 12, 2025, 7:16 a.m.

Reference frame: TEME

Reference center: EARTH

Epoch: Dec. 12, 2025, 12:15 a.m. UTC

TLE line 0: 0 CZ-6A DEB

TLE line 1: 1 54513U 22151JR 25346.01053083 .00000756 00000-0 21897-3 0 9997

TLE line 2: 2 54513 98.4868 355.9198 0149400 180.7714 179.3267 14.41122986161695

Live tracking on map

Real-time ground track for satellite CZ-6A DEB.

In-orbit conjunctions

A list of the most updated potential collisions computed for object CZ-6A DEB.

Target Orbit TCA Probability of collision Miss distance Type
IRIDIUM 33 DEB LEO 2025-10-06 10:39:18 0.0001347748 87.0 (m) DEBRIS
SL-16 R/B LEO 2025-07-09 18:23:06 0.0001732138 630.0 (m) ROCKET BODY
METEOR 2-8 DEB LEO 2024-09-27 04:10:48 0.0001140326 912.0 (m) DEBRIS

Associated space launch

Chinese satellite reported for atmospheric/ocean/environmental/spatial parameter research purposes, details TBD.

CZ-6A DEB was lifted into orbit during the mission ‘Long March 6A | Yunhai 3’, on board a Long March 6A space rocket.

The launch took place on Nov. 11, 2022, 10:52 p.m. from Launch Complex 9A.

For more information about the launch, click the button.

Launch to space Long March 6A | Yunhai 3
Long March 6A | Yunhai 3

Agency: N/A

Status: Launch Successful

Launch date: Nov. 11, 2022, 10:52 p.m. UTC

Rocket: Long March 6A

Launch pad: Launch Complex 9A

Location: Taiyuan Satellite Launch Center, People's Republic of China

...

Latest news about this satellite

There are no fresh news available about this satellite. Check back as we update our databases every day.


Newsletter sign-up

Weekly statistics, charts and insights to help you stay on top of the space industry.